Location: Kiltepe
(36.4752°N, 30.0120°E)
Time: 10:32:22
(UTC+00:00)

USA 59 Rocket - Pass Details

Date: 03 August 2024
Orbit: 381 x 1731 km, 63.3° (Epoch: 14 September)

Event Time Altitude Azimuth Distance (km) Brightness Sun altitude
Rises 18:27:38 0° 207° (SSW) 2,877 3.4 -15.6°
Reaches altitude 10° 18:30:10 10° 205° (SSW) 1,798 2.3 -16.0°
Maximum altitude 18:34:00 72° 121° (ESE) 478 -0.8 -16.6°
Drops below altitude 10° 18:37:07 10° 37° (NE) 1,461 2.0 -17.1°
Sets 18:39:00 0° 35° (NE) 2,277 3.0 -17.4°
